Simultaneous Nadir Overpasses (SNOs) Predictions

Prediction of SNOs between NOAA-15 and METOP-C Satellite Orbit:

Table of predicted SNOs for the next 14.0 days since TLE Epoch: 9/27/2019
Index Date (NOAA-15) Time (NOAA-15) Lat,Lon (NOAA-15) SZA (NOAA-15 ) Date (METOP-C) Time (METOP-C) Lat,Lon (METOP-C) SZA (METOP-C ) Distance(km) Time Diff (sec)
1 10/07/2019 23:13:47 -80.81, 46.28 91.65 10/07/2019 23:12:38 -80.76, 43.77 91.95 45.04 69
2 10/08/2019 00:04:20 80.86,-147.24 88.32 10/08/2019 00:03:13 80.85,-147.32 88.28 1.58 67
3 10/08/2019 00:54:52 -80.85, 20.19 91.67 10/08/2019 00:53:55 -80.85, 20.03 91.70 2.68 57
4 10/08/2019 01:45:23 80.86,-172.63 88.34 10/08/2019 01:44:34 80.86,-172.46 88.34 2.95 49
5 10/08/2019 02:35:55 -80.86, -5.20 91.65 10/08/2019 02:35:16 -80.86, -5.10 91.65 1.78 39
6 10/08/2019 03:26:26 80.87, 161.99 88.36 10/08/2019 03:25:56 80.85, 162.05 88.34 2.04 30
7 10/08/2019 04:16:58 -80.86, -30.59 91.63 10/08/2019 04:16:38 -80.85, -30.59 91.64 1.28 20
8 10/08/2019 05:07:28 80.86, 136.97 88.40 10/08/2019 05:07:17 80.86, 136.91 88.40 1.21 11
9 10/08/2019 05:58:00 -80.85, -55.62 91.59 10/08/2019 05:57:59 -80.86, -55.73 91.59 2.32 1
10 10/08/2019 06:48:31 80.86, 111.59 88.42 10/08/2019 06:48:39 80.85, 111.42 88.41 2.97 8
11 10/08/2019 07:39:03 -80.86, -81.00 91.57 10/08/2019 07:39:20 -80.87, -80.86 91.53 3.02 17
12 10/08/2019 08:29:34 80.87, 86.20 88.44 10/08/2019 08:30:00 80.87, 86.29 88.46 1.54 26
13 10/08/2019 09:20:06 -80.87,-106.39 91.54 10/08/2019 09:20:42 -80.87,-106.35 91.53 0.66 36
14 10/08/2019 10:10:37 80.87, 60.82 88.47 10/08/2019 10:11:22 80.86, 60.80 88.47 1.90 45
15 10/08/2019 11:01:09 -80.87,-131.78 91.52 10/08/2019 11:02:04 -80.86,-131.84 91.52 1.87 55
16 10/08/2019 11:51:39 80.86, 35.80 88.51 10/08/2019 11:52:43 80.87, 35.66 88.52 2.45 64




NCC Satellite Simultaneous Nadir Overpasses (SNOs) Prediction Service
